Overview Statistics Trail Chart Weather Telemetry Raw packets
 

This is the latest recevied weather packets stored in our database for station/object 9W2CHF-2. If no packets are shown the sender has not sent any weather packets the latest 10 day(s).

<< 28 29 30 31 32 33 34 >>
Time Temp. Humidity Pressure Rain* Wind** Luminosity Snow
1787949946 32.22° C 45% 1011.1 hPa - - - -
1787949046 31.67° C 45% 1011.2 hPa - - - -
1787948146 31.67° C 45% 1011.3 hPa - - - -
1787947246 32.22° C 46% 1011.3 hPa - - - -
1787946345 32.22° C 48% 1011.4 hPa - - - -
1787945445 32.22° C 47% 1011.5 hPa - - - -
1787944545 32.22° C 48% 1011.5 hPa - - - -
1787943644 32.22° C 49% 1011.7 hPa - - - -
1787942743 32.22° C 51% 1011.9 hPa - - - -
1787941843 32.22° C 53% 1012.2 hPa - - - -
1787940943 32.22° C 54% 1012.4 hPa - - - -
1787940043 32.22° C 59% 1012.6 hPa - - - -
1787939142 32.78° C 58% 1012.9 hPa - - - -
1787938253 32.78° C 64% 1012.9 hPa - - - -
1787937353 32.78° C 63% 1013 hPa - - - -
1787936453 32.78° C 63% 1013.2 hPa - - - -
1787935553 32.78° C 64% 1013.4 hPa - - - -
1787934652 33.33° C 64% 1013.5 hPa - - - -
1787933752 33.33° C 64% 1013.6 hPa - - - -
1787932851 33.33° C 64% 1013.7 hPa - - - -
1787931951 33.33° C 63% 1013.6 hPa - - - -
1787931051 33.33° C 63% 1013.6 hPa - - - -
1787930151 33.33° C 63% 1013.7 hPa - - - -
1787929250 33.33° C 61% 1013.5 hPa - - - -
1787928350 33.33° C 61% 1013.3 hPa - - - -

* Rain since midnight (hover to see other rain measurements)
** Current wind speed in m/s (hover to see current wind gust speed)